Forside
METAR-TAF:

METAR-TAF

Lufthavne :

Wittman Regional Airport

Oshkosh, Wisconsin, USA

Breddekreds: 43-58-00N, længdekreds: 088-33-29W, højde: 246 m

Aktuelle vejr

Denne rapport blev lavet for 34 minutter siden, kl. 11:53 UTC
Vind 10 kt fra sydøst
Temperatur 2°C
Fugtighed 80%
Tryk 1023 hPa
Sigt: 16.1 km
Overskyet i en højde af 2700 ft

METAR: KOSH 241153Z 13010KT 10SM OVC027 02/M01 A3021 RMK AO2 SLP244 T00221006 10022 21017 56012

Tid: 06:27 (12:27 UTC)


TAF: fraværende

Vejrobservationer og prognoser fra mere end 4000 lufthavne (METAR og TAF).

De gule og røde prikker repræsenterer de meteorologiske stationer.

Flyt musen over at se navnet på stationen.

Så klik over at se vejr observationer og prognoser.

At skifte det kort: Klik på de grønne knapper med et sort kors for at zoome ind; på den grønne knap med en bindestreg for at zoome ud; eller på de grønne pile for tilstødende kort.


METAR-TAF: